Location: Góry Miechowskie
(50.3599°N, 20.1803°E)
Time: 22:04:07
(UTC+00:00)

Tiros 1 despin weight - Pass Details

Date: 19 September 2024
Orbit: 572 x 614 km, 48.2° (Epoch: 12 October)

Event Time Altitude Azimuth Distance (km) Brightness Sun altitude
Rises 02:45:21 0° 261° (W) 2,870 - -15.7°
Reaches altitude 10° 02:47:39 10° 258° (WSW) 1,970 - -15.4°
Exits shadow 02:49:42 26° 252° (WSW) 1,213 ? -15.1°
Maximum altitude 02:52:09 67° 177° (S) 669 ? -14.7°
Drops below altitude 10° 02:56:40 10° 95° (E) 1,979 ? -14.0°
Sets 02:59:00 0° 93° (E) 2,884 ? -13.7°
